Location: Dammartin
(48.9032°N, 1.6195°E)
Time: 15:12:10
(UTC+00:00)

BlueWalker 3 - Pass Details

Date: 19 April 2024
Orbit: 482 x 494 km, 53.2° (Epoch: 22 May)

Event Time Altitude Azimuth Distance (km) Brightness Sun altitude
Rises 23:25:54 0° 288° (WNW) 2,585 5.9 -29.2°
Reaches altitude 10° 23:28:09 10° 295° (WNW) 1,702 4.9 -29.2°
Enters shadow 23:28:24 12° 296° (WNW) 1,610 4.8 -29.3°
